Flag for U.S.A. Weather past 2 weeks in Tempe, Arizona, U.S.A.

Now
97 °F

Passing clouds.


Feels Like: 96 °F
Forecast: 85 / 103 °F
Wind: No wind

Location: Phoenix Sky Harbor International Airport

Current Time: Jul 7, 2015 at 11:31:58 AM

Latest Report: Jul 7, 2015 at 10:51 AM


Visibility: 10 mi

Pressure: 29.81 "Hg

Humidity: 27%

Dew point: 58 °F

Location of TempeLocation

Historic Weather in Tempe — Graph

°F

Tempe temperature yesterday

Maximum temperature yesterday: 104 °F (at 5:51 PM)
Minimum temperature yesterday: 79 °F (at 5:51 AM)
Average temperature yesterday: 93 °F

Past Weeks' High & Low Weather Summary

 TemperatureHumidityPressure
High112 °F (Jun 24, 4:51 PM)69% (Jul 6, 5:51 AM)29.92 "Hg (Jul 6, 5:51 AM)
Low79 °F (Jul 6, 5:51 AM)5% (Jun 24, 11:51 AM)29.61 "Hg (Jun 30, 7:51 PM)
Average97 °F28%29.76 "Hg
* Reported Jun 22 9:51 AM — Jul 7 9:51 AM, Tempe, Weather by CustomWeather, © 2015

Note: Actual official high and low records may vary slightly from our data, if they occured in-between our weather recording intervals... More about our weather records

Advertising

Tempe weather history for previous 24 hours

 ConditionsComfort  
Time TempWeatherWind HumidityBarometerVisibility
9:51 AM
Tue, Jul 7
95 °FPassing clouds.6 mph30%29.82 "Hg10 mi
8:51 AM92 °FPassing clouds.No wind36%29.83 "Hg10 mi
7:51 AM90 °FPassing clouds.3 mph41%29.83 "Hg10 mi
6:51 AM87 °FPassing clouds.7 mph45%29.82 "Hg10 mi
5:51 AM86 °FPassing clouds.7 mph49%29.81 "Hg10 mi
4:51 AM86 °FPassing clouds.7 mph49%29.79 "Hg10 mi
3:51 AM87 °FPassing clouds.8 mph48%29.78 "Hg10 mi
2:51 AM91 °FClear.3 mph33%29.78 "Hg10 mi
1:51 AM93 °FPassing clouds.10 mph30%29.78 "Hg10 mi
12:51 AM94 °FPassing clouds.9 mph31%29.78 "Hg10 mi
11:51 PM
Mon, Jul 6
95 °FPassing clouds.7 mph26%29.78 "Hg10 mi
10:51 PM96 °FPassing clouds.8 mph23%29.78 "Hg10 mi
9:51 PM96 °FPassing clouds.7 mph23%29.78 "Hg10 mi
8:51 PM97 °FPartly cloudy.9 mph24%29.74 "Hg10 mi
7:51 PM101 °FPartly cloudy.9 mph24%29.73 "Hg10 mi
6:51 PM102 °FScattered clouds.6 mph23%29.71 "Hg10 mi
5:51 PM104 °FScattered clouds.12 mph20%29.72 "Hg10 mi
4:51 PM103 °FScattered clouds.12 mph20%29.73 "Hg10 mi
3:51 PM103 °FScattered clouds.13 mph22%29.76 "Hg10 mi
2:51 PM102 °FScattered clouds.9 mph22%29.79 "Hg10 mi
1:51 PM100 °FScattered clouds.3 mph27%29.82 "Hg10 mi
12:51 PM100 °FScattered clouds.9 mph27%29.85 "Hg10 mi
11:51 AM95 °FPassing clouds.9 mph36%29.88 "Hg10 mi
Weather by CustomWeather, © 2015

See weather overviewHow to use our weather pages